This is the latest recevied weather packets stored in our database for station/object WAYLND-WX. If no packets are shown the sender has not sent any weather packets the latest 10 day(s).
| Time | Temp. | Humidity | Pressure | Rain* | Wind** | Luminosity | Snow |
|---|---|---|---|---|---|---|---|
| 1777950943 | 16.11° C | 61% | 972.5 hPa | 0 mm | - | - | - |
| 1777950076 | 16.67° C | 61% | 972.5 hPa | 0 mm | - | - | - |
| 1777949143 | 16.67° C | 59% | 972.8 hPa | 0 mm | - | - | - |
| 1777948263 | 17.22° C | 59% | 972.8 hPa | 0 mm | - | - | - |
| 1777947342 | 17.22° C | 59% | 972.8 hPa | 0 mm | - | - | - |
| 1777946476 | 17.22° C | 59% | 972.8 hPa | 0 mm | - | - | - |
| 1777945543 | 17.78° C | 68% | 972.1 hPa | 0 mm | - | - | - |
| 1777944661 | 17.78° C | 68% | 972.1 hPa | 0 mm | - | - | - |
| 1777943744 | 16.67° C | 68% | 972.1 hPa | 0 mm | - | - | - |
| 1777942872 | 17.78° C | 68% | 972.1 hPa | 0 mm | - | - | - |
| 1777941943 | 18.33° C | 39% | 972.3 hPa | 0 mm | - | - | - |
| 1777941060 | 19.44° C | 43% | 973 hPa | 0 mm | - | - | - |
| 1777940142 | 19.44° C | 43% | 973 hPa | 0 mm | - | - | - |
| 1777939281 | 20° C | 43% | 973 hPa | 0 mm | - | - | - |
| 1777938344 | 20.56° C | 35% | 973 hPa | 0 mm | - | - | - |
| 1777937461 | 21.11° C | 33% | 972.9 hPa | 0 mm | - | - | - |
| 1777936543 | 21.67° C | 33% | 972.9 hPa | 0 mm | - | - | - |
| 1777935670 | 21.67° C | 33% | 972.9 hPa | 0 mm | - | - | - |
| 1777934743 | 22.22° C | 34% | 972.8 hPa | 0 mm | - | - | - |
| 1777933863 | 22.22° C | 34% | 973.1 hPa | 0 mm | - | - | - |
| 1777932943 | 22.22° C | 34% | 973.1 hPa | 0 mm | - | - | - |
| 1777932079 | 22.22° C | 34% | 973.1 hPa | 0 mm | - | - | - |
| 1777931142 | 22.78° C | 36% | 974.1 hPa | 0 mm | - | - | - |
| 1777930264 | 22.78° C | 36% | 974.1 hPa | 0 mm | - | - | - |
| 1777929342 | 22.78° C | 37% | 973 hPa | 0 mm | - | - | - |
* Rain latest hour (hover to see other rain measurements)
** Current wind speed in m/s (hover to see current wind gust speed)